Location: Ch�tillon
(48.8024°N, 2.2935°E)
Time: 19:09:41
(UTC+00:00)

STRAND 1 - Pass Details

Date: 26 June 2022
Orbit: 767 x 781 km, 98.4° (Epoch: 09 August)

Event Time Altitude Azimuth Distance (km) Brightness Sun altitude
Rises 20:51:44 0° 1° (N) 3,278 ? -7.2°
Reaches altitude 10° 20:55:04 10° 338° (NNW) 2,342 ? -7.6°
Maximum altitude 20:57:48 15° 306° (NW) 2,027 ? -7.9°
Drops below altitude 10° 21:00:31 10° 274° (W) 2,330 ? -8.2°
Sets 21:03:50 0° 251° (WSW) 3,250 ? -8.5°
